Location: Moy Burn
(57.3833°N, 4.0667°W)
Time: 10:14:10
(UTC+00:00)

Tsikada Rocket - Pass Details

Date: 08 August 2020
Orbit: 957 x 1010 km, 82.9° (Epoch: 18 September)

Event Time Altitude Azimuth Distance (km) Brightness Sun altitude
Rises 23:26:49 0° 347° (NNW) 3,750 8.9 -15.9°
Reaches altitude 10° 23:29:23 10° 345° (NNW) 2,791 7.8 -16.0°
Maximum altitude 23:35:45 69° 264° (W) 1,064 4.2 -16.2°
Enters shadow 23:39:49 23° 186° (S) 1,961 5.0 -16.3°
